| time (UTC) | temp F | wind direction | speed knots | gust knots | rain 1hr in | rain 24hr in | rain mn in | humidity % | barometer mb |
| 20260510011504 | 35 | 146 | 0.0 | 0.0 | 0.00 | 0.00 | 0.00 | 90 | 1018.4 |
| 20260510003003 | 36 | 146 | 0.0 | 0.0 | 0.00 | 0.00 | 0.00 | 90 | 1018.4 |
| 20260510000003 | 37 | 146 | 0.0 | 0.0 | 0.00 | 0.00 | 0.00 | 90 | 1019.0 |
| 20260509233004 | 37 | 146 | 0.0 | 0.0 | 0.00 | 0.00 | 0.00 | 90 | 1019.0 |
| 20260509231503 | 38 | 146 | 0.0 | 0.0 | 0.00 | 0.00 | 0.00 | 90 | 1019.0 |
| 20260509213003 | 40 | 146 | 0.0 | 0.0 | 0.00 | 0.00 | 0.00 | 89 | 1019.7 |
| 20260509210004 | 42 | 146 | 0.0 | 0.0 | 0.00 | 0.00 | 0.00 | 88 | 1019.7 |
| 20260509204504 | 42 | 146 | 0.0 | 0.9 | 0.00 | 0.00 | 0.00 | 87 | 1019.7 |
| 20260509203005 | 43 | 146 | 0.0 | 1.7 | 0.00 | 0.00 | 0.00 | 86 | 1019.7 |
| 20260509201504 | 43 | 147 | 0.0 | 0.9 | 0.00 | 0.00 | 0.00 | 85 | 1020.0 |
| 20260509194503 | 45 | 147 | 0.0 | 1.7 | 0.00 | 0.00 | 0.00 | 81 | 1020.1 |
| 20260509193005 | 46 | 147 | 0.9 | 2.6 | 0.00 | 0.00 | 0.00 | 80 | 1020.1 |
| 20260509184504 | 49 | 163 | 0.9 | 2.6 | 0.00 | 0.00 | 0.00 | 73 | 1020.1 |
| 20260509174505 | 53 | 131 | 0.9 | 6.1 | 0.00 | 0.00 | 0.00 | 62 | 1019.8 |
| 20260509171504 | 55 | 96 | 1.7 | 7.0 | 0.00 | 0.00 | 0.00 | 55 | 1019.8 |
| 20260509154505 | 58 | 64 | 4.3 | 14.8 | 0.00 | 0.00 | 0.00 | 42 | 1020.6 |
| 20260509153006 | 58 | 77 | 6.1 | 10.4 | 0.00 | 0.00 | 0.00 | 40 | 1020.9 |
| 20260509151504 | 60 | 74 | 3.5 | 10.4 | 0.00 | 0.00 | 0.00 | 41 | 1020.9 |
| 20260509150006 | 60 | 74 | 6.1 | 11.3 | 0.00 | 0.00 | 0.00 | 40 | 1021.0 |
| 20260509144505 | 59 | 93 | 3.5 | 10.4 | 0.00 | 0.00 | 0.00 | 39 | 1021.2 |
| 20260509140005 | 57 | 357 | 7.0 | 11.3 | 0.00 | 0.00 | 0.00 | 52 | 1021.9 |
| 20260509133005 | 55 | 357 | 10.4 | 14.8 | 0.00 | 0.00 | 0.00 | 56 | 1021.9 |
| 20260509131504 | 55 | 350 | 10.4 | 13.9 | 0.00 | 0.00 | 0.00 | 54 | 1022.1 |
| 20260509124505 | 55 | 349 | 10.4 | 14.8 | 0.00 | 0.00 | 0.00 | 55 | 1022.1 |
| 20260509121504 | 56 | 345 | 7.0 | 10.4 | 0.00 | 0.00 | 0.00 | 61 | 1022.2 |
| 20260509120005 | 59 | 65 | 7.0 | 12.2 | 0.00 | 0.00 | 0.00 | 38 | 1022.2 |
| 20260509114504 | 59 | 57 | 3.5 | 10.4 | 0.00 | 0.00 | 0.00 | 41 | 1022.4 |
| 20260509110005 | 54 | 0 | 9.6 | 13.9 | 0.00 | 0.00 | 0.00 | 66 | 1022.5 |
| 20260509104504 | 54 | 3 | 8.7 | 13.0 | 0.00 | 0.00 | 0.00 | 67 | 1022.5 |
| 20260509100005 | 52 | 351 | 8.7 | 13.9 | 0.00 | 0.00 | 0.00 | 74 | 1022.7 |
| 20260509093006 | 52 | 354 | 7.8 | 13.9 | 0.00 | 0.00 | 0.00 | 76 | 1022.8 |
| 20260509090005 | 51 | 354 | 8.7 | 12.2 | 0.00 | 0.00 | 0.00 | 77 | 1022.8 |
| 20260509080006 | 51 | 350 | 7.8 | 10.4 | 0.00 | 0.00 | 0.00 | 76 | 1022.8 |
| 20260509074504 | 51 | 351 | 7.0 | 11.3 | 0.00 | 0.00 | 0.00 | 76 | 1022.8 |
| 20260509073005 | 51 | 4 | 6.1 | 10.4 | 0.00 | 0.00 | 0.00 | 74 | 1022.9 |
| 20260509071505 | 51 | 345 | 7.0 | 10.4 | 0.00 | 0.00 | 0.00 | 74 | 1023.1 |
| 20260509064504 | 52 | 8 | 5.2 | 10.4 | 0.00 | 0.00 | 0.00 | 69 | 1023.0 |
| 20260509061504 | 50 | 66 | 4.3 | 6.1 | 0.00 | 0.00 | 0.00 | 66 | 1023.1 |
| 20260509060004 | 49 | 25 | 3.5 | 6.1 | 0.00 | 0.00 | 0.00 | 69 | 1023.1 |
| 20260509043004 | 46 | 30 | 4.3 | 7.0 | 0.00 | 0.00 | 0.00 | 77 | 1023.0 |
| 20260509034503 | 43 | 28 | 2.6 | 5.2 | 0.00 | 0.00 | 0.00 | 84 | 1023.2 |
| 20260509033004 | 42 | 21 | 0.9 | 4.3 | 0.00 | 0.00 | 0.00 | 86 | 1023.2 |
| 20260509031504 | 42 | 24 | 1.7 | 4.3 | 0.00 | 0.00 | 0.00 | 84 | 1023.3 |
| 20260509024504 | 43 | 34 | 2.6 | 6.1 | 0.00 | 0.00 | 0.00 | 84 | 1023.2 |
| 20260509020004 | 43 | 31 | 2.6 | 6.1 | 0.00 | 0.00 | 0.00 | 78 | 1023.4 |